Portada
METAR-TAF:

METAR-TAF

Aeroports :

Grand Rapids/Itasca County Airport (Gordon Newstrom Field)

Grand Rapids, Minnesota, Estats Units d'Amèrica

latitud: 47-13N, longitud: 093-31W, altitud: 413 m

Observació

L'informe es va fer fa 15 minuts, a les 16:56 UTC
Vent 6 kt del Oest/Sud-Oest
Temperatura -1°C
Humitat 80%
Pressió 1015 hPa
Visibilitat: 16.1 km
Cel clar

METAR: KGPZ 101656Z AUTO 25006KT 10SM CLR M01/M04 A2998 RMK AO2 SNB09E28 SLP175 P0000 T10061044 FZRANO

Hora: 11:11 (17:11 UTC)


TAF: manca

Observacions i pronòstics meteorològics de més de 4000 aeroports (METAR i TAF).

Les estacions disponibles són els punts grocs i vermells al mapa.

Posi el ratolí al punt desitjat per veure el nom de l'estació.

Feu clic per veure les observacions i els pronòstics meteorològics.

Per canviar el mapa: feu clic els botons verds amb una creu de color negre per apropar; al botó verd amb un guió per allunyar la imatge; o en les fletxes verdes per a mapes adjacents.


METAR-TAF: